FENGYUN 1C DEB, 31608

Orbit data source: Space-Track

FENGYUN 1C DEB, 31608 is space debris in SSO originally from a launch on Mon, 10 May 1999 UTC launched from the Taiyaun Space Center, China (TSC). Fengyun 1C debris stems from the Chinese weather satellite Fengyun-1C, which was intentionally destroyed by a Chinese anti-satellite missile in 2007. This event dramatically increased the amount of space debris, with thousands of trackable fragments posing hazards to satellites and human spaceflight. The Fengyun 1C debris cloud has become a focal point in discussions about space sustainability and the need for international regulations to prevent the creation of new debris.

Loading next visibility...
Identifier
31608, 1999-025BZN
Orbit
SSO
Country
Flag of CNCN / PRC
Related business
Manufacturer
Unknown
Mission
Spacecraft
Bus & Motor
Unknown
Mass
Unknown
Launch date (UTC)
1999-05-10 (27 years ago)
Launch vehicle
Unknown
Launch site
Taiyaun Space Center, China (TSC)
Object type
Payload
Rocket body
Debris
Shape & HBR
Unknown shape, 0.1 m
Radar Cross Section
Small (<0.1 m²)

Expand to show TLE details & history
Last TLE update: 6 days ago

TLE from 6 days ago
0 FENGYUN 1C DEB
1 31608U 99025BZN 26161.60765807  .00007684  00000-0  68821-3 0  9991
2 31608  98.3976 294.9823 0138379 173.8063 186.4905 14.89014366 12882
Epoch: 2026-06-10T14:35Z
TLE epoch observation values (Epoch: 2026-06-10T14:35:01.657Z)
Latitude
-0°
Longitude
177.26202°
Altitude
700.028 km
Speed
7.454 km/s
True Right ascension
19h 39m 55s
True Declination
0° 00' 00"
Sunlit
Object was in full shadow at epoch
Visualization orbit readout
Latitude
Unknown
Longitude
Unknown
Altitude
Unknown
Speed
Unknown
Apparent Right ascension
Unknown
Apparent Declination
Unknown
Sunlit
N/A
Visualization observer readout
Local Sidereal Time
20:22:37
Azimuth
Unknown
Elevation
Unknown
Doppler factor
Unknown
Orbital elements
Apogee altitude
694.601 km
Perigee altitude
501.529 km
Semi-major axis
6,976.202 km
Eccentricity
0.01384
Inclination
98.3976°
RAAN
294.9823°
Arg. of periapsis
173.8063°
True anomaly
186.31428°
Mean anomaly
186.4905°
Eccentric anomaly
186.40209°
Mean motion
3.7249 °/min
Orbital period
96.65 mins
BSTAR
0.00068821
Loading maneuver chart data...
Computing Atmospheric mass density...

Documentation

Showing up to 5 results
|